Weather History for NW Arkansas Airport, AR

Change the Weather History Date:

Saturday, May 11, 2013

  Actual Average Record
Temperature  
Mean Temperature 59 °F -  
Max Temperature 73 °F - - ()
Min Temperature 46 °F - - ()
Degree Days  
Heating Degree Days 6    
Growing Degree Days 9 (Base 50)    
Moisture  
Dew Point 47 °F    
Average Humidity 75    
Maximum Humidity 100    
Minimum Humidity 39    
Precipitation  
Precipitation 0.01 in - - ()
Sea Level Pressure  
Sea Level Pressure 30.11 in    
Wind  
Wind Speed 5 mph (NNW)    
Max Wind Speed 18 mph    
Max Gust Speed 25 mph    
Visibility 7 miles    
Events      
T = Trace of Precipitation, MM = Missing Value Source: NWS Daily Summary

Daily Weather History Graph

Daily Weather History Graph

Search for Another Location

Airport:

Trip Planner

Search our weather history database for the weather conditions in past years. The results will help you decide how hot, cold, wet, or windy it might be!

Date:

Astronomy

May. 11, 2013 Rise Set
Actual Time 6:13 AM CDT 8:13 PM CDT
Civil Twilight 5:45 AM CDT 8:42 PM CDT
Nautical Twilight 5:11 AM CDT 9:16 PM CDT
Astronomical Twilight 4:34 AM CDT 9:53 PM CDT
Moon 7:23 AM CDT (5/11) 9:53 PM CDT (5/11)
Length of Visible Light 14h 56m
Length of Day
13h 59m
Waxing Crescent, 3% of the Moon is Illuminated
May 11
Waxing Crescent
May 17
First Quarter
May 24
Full
May 31
Last Quarter
Jun 8
New

Hourly Weather History & Observations

Time (CDT) Temp. Dew Point Humidity Pressure Visibility Wind Dir Wind Speed Gust Speed Precip Events Conditions
12:53 AM 51.1 °F 50.0 °F 96% 30.05 in 10.0 mi NNW 4.6 mph - N/A   Clear
1:53 AM 52.0 °F 50.0 °F 93% 30.07 in 8.0 mi Calm Calm - N/A   Clear
2:53 AM 50.0 °F 50.0 °F 100% 30.08 in 7.0 mi NW 3.5 mph - N/A   Clear
3:41 AM 48.2 °F 48.2 °F 100% 30.08 in 1.8 mi NNW 3.5 mph - N/A   Clear
3:50 AM 48.2 °F 48.2 °F 100% 30.08 in 3.0 mi NNW 4.6 mph - N/A   Clear
3:51 AM 48.9 °F 48.0 °F 97% 30.06 in 4.0 mi NNW 5.8 mph - N/A   Clear
4:06 AM 48.2 °F 48.2 °F 100% 30.07 in 2.5 mi North 4.6 mph - N/A   Clear
4:14 AM 48.2 °F 48.2 °F 100% 30.08 in 4.0 mi North 4.6 mph - N/A   Clear
4:53 AM 50.0 °F 48.9 °F 96% 30.06 in 5.0 mi Calm Calm - N/A   Clear
5:53 AM 48.0 °F 46.9 °F 96% 30.07 in 4.0 mi Calm Calm - N/A   Clear
6:09 AM 46.4 °F 46.4 °F 100% 30.09 in 1.5 mi Calm Calm - N/A   Clear
6:21 AM 48.2 °F 46.4 °F 93% 30.09 in 3.0 mi Calm Calm - N/A   Clear
6:53 AM 48.0 °F 46.9 °F 96% 30.09 in 4.0 mi Calm Calm - N/A   Clear
7:53 AM 53.1 °F 51.1 °F 93% 30.11 in 5.0 mi Calm Calm - 0.01 in   Clear
8:53 AM 59.0 °F 53.1 °F 81% 30.12 in 10.0 mi NW 6.9 mph - N/A   Clear
9:53 AM 63.0 °F 53.1 °F 70% 30.12 in 10.0 mi NW 8.1 mph - N/A   Clear
10:53 AM 66.0 °F 48.9 °F 54% 30.11 in 10.0 mi North 9.2 mph - N/A   Clear
11:53 AM 70.0 °F 51.1 °F 51% 30.12 in 10.0 mi Variable 6.9 mph 17.3 mph N/A   Clear
12:53 PM 71.1 °F 51.1 °F 49% 30.12 in 10.0 mi NW 9.2 mph - N/A   Clear
1:53 PM 70.0 °F 52.0 °F 53% 30.11 in 10.0 mi NW 9.2 mph - N/A   Scattered Clouds
2:53 PM 70.0 °F 52.0 °F 53% 30.11 in 10.0 mi NW 8.1 mph - N/A   Mostly Cloudy
3:53 PM 72.0 °F 54.0 °F 53% 30.09 in 10.0 mi NW 11.5 mph 23.0 mph N/A   Partly Cloudy
4:53 PM 70.0 °F 50.0 °F 49% 30.10 in 10.0 mi North 17.3 mph 25.3 mph N/A   Scattered Clouds
5:53 PM 68.0 °F 45.0 °F 43% 30.12 in 10.0 mi North 18.4 mph - N/A   Clear
6:53 PM 64.9 °F 39.0 °F 39% 30.12 in 10.0 mi North 13.8 mph - N/A   Clear
7:53 PM 60.1 °F 36.0 °F 41% 30.14 in 10.0 mi North 11.5 mph - N/A   Clear
8:53 PM 54.0 °F 37.9 °F 55% 30.16 in 10.0 mi North 6.9 mph - N/A   Clear
9:53 PM 50.0 °F 37.9 °F 63% 30.18 in 10.0 mi NNW 9.2 mph - N/A   Clear
10:53 PM 50.0 °F 37.0 °F 61% 30.20 in 10.0 mi North 5.8 mph - N/A   Clear
11:53 PM 46.9 °F 37.9 °F 71% 30.21 in 10.0 mi Calm Calm - N/A   Clear